Weather History for New York, NY

Change the Weather History Date:

Sunday, November 18, 2012

  Actual Average Record
Temperature  
Mean Temperature 45 °F 48 °F  
Max Temperature 49 °F 54 °F 72 °F (1953)
Min Temperature 40 °F 41 °F 22 °F (1959)
Degree Days  
Heating Degree Days 20 18  
Month to date heating degree days 336 268  
Since 1 July heating degree days 518 540  
Cooling Degree Days 0 0  
Month to date cooling degree days 0 0  
Year to date cooling degree days 1511 1213  
Moisture  
Dew Point 34 °F    
Average Humidity 68    
Maximum Humidity 76    
Minimum Humidity 60    
Precipitation  
Precipitation 0.00 in 0.11 in 1.03 in (1968)
Month to date precipitation 0.89 1.98  
Year to date precipitation 31.95 39.74  
Snow  
Snow 0.00 in 0.00 in 1.10 in (1962)
Month to date snowfall 1.1 0.0  
Since 1 July snowfall 1.1 0.0  
Snow Depth 0.00 in    
Sea Level Pressure  
Sea Level Pressure 30.62 in    
Wind  
Wind Speed 9 mph (NE)    
Max Wind Speed 15 mph    
Max Gust Speed 20 mph    
Visibility 10 miles    
Events      
T = Trace of Precipitation, MM = Missing Value Source: NWS Daily Summary

Daily Weather History Graph

Daily Weather History Graph

Search for Another Location

Airport:

Trip Planner

Search our weather history database for the weather conditions in past years. The results will help you decide how hot, cold, wet, or windy it might be!

Date:

Astronomy

Nov. 18, 2012 Rise Set
Actual Time 6:46 AM EST 4:34 PM EST
Civil Twilight 6:16 AM EST 5:04 PM EST
Nautical Twilight 5:43 AM EST 5:37 PM EST
Astronomical Twilight 5:11 AM EST 6:10 PM EST
Moon 11:11 AM EST (11/18) 9:51 PM EST (11/18)
Length of Visible Light 10h 47m
Length of Day
9h 48m
Waxing Crescent, 30% of the Moon is Illuminated
Nov 18
Waxing Crescent
Nov 20
First Quarter
Nov 28
Full
Dec 6
Last Quarter
Dec 13
New

Hourly Weather History & Observations

Time (EST) Temp. Windchill Dew Point Humidity Pressure Visibility Wind Dir Wind Speed Gust Speed Precip Events Conditions
12:51 AM 43.0 °F 39.5 °F 30.9 °F 62% 30.63 in 10.0 mi North 5.8 mph - N/A   Clear
1:51 AM 42.1 °F 39.2 °F 30.0 °F 62% 30.63 in 10.0 mi North 4.6 mph - N/A   Clear
2:51 AM 42.1 °F 37.1 °F 30.9 °F 65% 30.63 in 10.0 mi NNE 8.1 mph - N/A   Clear
3:51 AM 41.0 °F 35.8 °F 30.0 °F 65% 30.63 in 10.0 mi NNE 8.1 mph - N/A   Clear
4:51 AM 41.0 °F 38.0 °F 30.9 °F 67% 30.64 in 10.0 mi NE 4.6 mph - N/A   Clear
5:51 AM 39.2 °F 33.6 °F 32.0 °F 75% 30.64 in 10.0 mi NE 8.1 mph - N/A   Clear
6:51 AM 39.9 °F 35.1 °F 32.0 °F 73% 30.66 in 10.0 mi NE 6.9 mph - N/A   Scattered Clouds
7:51 AM 41.0 °F 35.8 °F 34.0 °F 76% 30.66 in 10.0 mi NNE 8.1 mph - N/A   Scattered Clouds
8:51 AM 42.1 °F 36.1 °F 35.1 °F 76% 30.67 in 10.0 mi NE 10.4 mph - N/A   Scattered Clouds
9:51 AM 44.1 °F 38.1 °F 36.0 °F 73% 30.67 in 10.0 mi NE 11.5 mph - N/A   Mostly Cloudy
10:51 AM 46.0 °F 40.6 °F 37.0 °F 71% 30.67 in 10.0 mi NE 11.5 mph - N/A   Mostly Cloudy
11:51 AM 46.4 °F 41.1 °F 37.4 °F 71% 30.64 in 10.0 mi NE 11.5 mph - N/A   Mostly Cloudy
12:51 PM 48.0 °F - 37.0 °F 66% 30.62 in 10.0 mi NE 11.5 mph - N/A   Mostly Cloudy
1:51 PM 48.0 °F - 37.0 °F 66% 30.61 in 10.0 mi NE 12.7 mph - N/A   Mostly Cloudy
2:51 PM 48.0 °F - 37.0 °F 66% 30.61 in 10.0 mi NE 12.7 mph - N/A   Mostly Cloudy
3:51 PM 48.0 °F - 36.0 °F 63% 30.60 in 10.0 mi NE 11.5 mph - N/A   Mostly Cloudy
4:51 PM 46.9 °F - 35.1 °F 63% 30.60 in 10.0 mi ENE 10.4 mph - N/A   Mostly Cloudy
5:51 PM 46.9 °F - 35.1 °F 63% 30.61 in 10.0 mi ENE 8.1 mph - N/A   Mostly Cloudy
6:51 PM 46.9 °F - 35.1 °F 63% 30.61 in 10.0 mi East 9.2 mph - N/A   Mostly Cloudy
7:51 PM 46.0 °F 41.9 °F 34.0 °F 63% 30.60 in 10.0 mi East 8.1 mph - N/A   Mostly Cloudy
8:51 PM 45.0 °F 41.2 °F 34.0 °F 65% 30.60 in 10.0 mi East 6.9 mph - N/A   Mostly Cloudy
9:51 PM 46.0 °F 41.9 °F 36.0 °F 68% 30.59 in 10.0 mi ENE 8.1 mph - N/A   Mostly Cloudy
10:51 PM 45.0 °F 41.2 °F 36.0 °F 71% 30.58 in 10.0 mi ENE 6.9 mph - N/A   Mostly Cloudy
11:51 PM 44.1 °F 39.0 °F 36.0 °F 73% 30.57 in 10.0 mi East 9.2 mph - N/A   Scattered Clouds